User: anonymous   Login
Location: ?astrovice
(49.6513°N, 14.9287°E)
Time: 17:58:49
(UTC+00:00)
Language:

Cosmos 1356 Rocket - Orbit

View from above orbital plane
View from above orbital plane
View from above satellite
View from above satellite

Ground track
Ground track

The orbit data is extracted from the following two-line orbital elements,

1 13154U 82039B   20184.88849008 +.00000079 +00000-0 +47055-5 0  9998
2 13154 081.1836 054.9033 0038911 271.3289 088.3472 14.98746325069962
Epoch (UTC): 02 July 2020 21:19:25
Eccentricity: 0.0038911
inclination: 81.1836°
perigee height: 544 km
apogee height: 598 km
right ascension of ascending node: 54.9033°
argument of perigee: 271.3289°
revolutions per day: 14.98746325
mean anomaly at epoch: 88.3472°
orbit number at epoch: 6996

The dashed part of the orbit path shows where the satellite is in the earth's shadow,  

DLR